Regional Weather Roundup
Issued by NWS

Home | Current Version | Previous Version | Text Only | Print | Product List | Glossary Off
Versions: 1 2 3 4 5 6 7 8 9 10 11 12 13 14 15 16 17 18 19 20 21 22 23 24 25 26 27 28 29 30 31 32 33 34 35 36 37 38 39 40 41 42 43 44 45 46 47 48 49 50

000
ASUS43 KLSX 300807
RWRMO

WEATHER SUMMARY FOR MISSOURI
NATIONAL WEATHER SERVICE SPRINGFIELD MO
300 AM CDT THU OCT 30 2014

NOTE: "FAIR" INDICATES FEW OR NO CLOUDS BELOW 12,000 FEET WITH NO
       SIGNIFICANT WEATHER AND/OR OBSTRUCTIONS TO VISIBILITY.
       CURRENT SKY AND/OR WEATHER CONDITIONS ARE NOT AVAILABLE FOR
       CHILLICOTHE AND FARMINGTON.

MOZ001>031-035>038-043-044-053-054-300900-
...NORTHERN AND WESTERN MISSOURI...

CITY           SKY/WX    TMP DP  RH WIND       PRES   REMARKS
KANSAS CTY INT PTCLDY    47  37  68 S12       30.03F
KANSAS C DTWN  CLEAR     50  36  58 S9        30.05F
LEE`S SUMMIT   CLEAR     48  34  58 S9        30.07F
ST JOSEPH      CLEAR     46  37  71 SE6       30.04F
CHILLICOTHE      N/A     44  35  70 SE5       30.10F
KIRKSVILLE     PTCLDY    37  33  85 SE5       30.12S

$$
MOZ066>068-077>081-088>096-101>105-300900-
...SOUTHWEST MISSOURI...

CITY           SKY/WX    TMP DP  RH WIND       PRES   REMARKS
SPRINGFIELD    CLEAR     44  36  73 S9        30.12S
JOPLIN         CLEAR     47  37  68 S9        30.11F

$$
MOZ032>034-039>042-045>050-055>058-069>072-300900-
...CENTRAL MISSOURI...

CITY           SKY/WX    TMP DP  RH WIND       PRES   REMARKS
COLUMBIA       CLEAR     41  34  76 SE7       30.13F
JEFFERSON CITY CLEAR     36  34  92 SE6       30.14F
ROLLA          CLEAR     38  31  76 SE6       30.12S
SEDALIA        CLEAR     45  34  65 SE8       30.11F
WHITEMAN AFB   PTCLDY    46  34  65 S5        30.08F
OSAGE BEACH    CLEAR     37  30  75 SE5       30.12F

$$
MOZ051-052-059>065-300900-
...EAST CENTRAL MISSOURI...

CITY           SKY/WX    TMP DP  RH WIND       PRES   REMARKS
ST LOUIS INTL  CLEAR     42  36  79 CALM      30.16F
SPIRIT OF STL  CLEAR     35  33  92 CALM      30.15F
ST CHARLES     CLEAR     38  37  97 E3        30.15F FOG

$$
MOZ072>076-082>087-097>100-106>115-300900-
...SOUTH CENTRAL AND SOUTHEAST MISSOURI...

CITY           SKY/WX    TMP DP  RH WIND       PRES   REMARKS
CAPE GIRARDEAU CLEAR     36  35  96 CALM      30.16F
FARMINGTON     CLEAR     34  30  86 CALM      30.17S
POPLAR BLUFF   CLEAR     36  32  85 CALM      30.16S
WEST PLAINS    CLEAR     38  33  82 CALM      30.15F

$$



USA.gov is the U.S. government's official web portal to all federal, state and local government web resources and services.